Regional Weather Roundup
Issued by NWS

Home | Current Version | Previous Version | Text Only | Print | Product List | Glossary On
Versions: 1 2 3 4 5 6 7 8 9 10 11 12 13 14 15 16 17 18 19 20 21 22 23 24 25 26 27 28 29 30 31 32 33 34 35 36 37 38 39 40 41 42 43 44 45 46 47 48 49 50
715
ASUS44 KBMX 300010
RWRAL

ALABAMA REGIONAL WEATHER ROUNDUP
NATIONAL WEATHER SERVICE BIRMINGHAM AL
700 PM CDT THU SEP 29 2016

NOTE: "FAIR" INDICATES FEW OR NO CLOUDS BELOW 12,000 FEET
WITH NO SIGNIFICANT WEATHER AND/OR OBSTRUCTIONS TO VISIBILITY.

THE REMARK "TC" DENOTES TEMPERATURE IN DEGREES CELSIUS.

ALZ001>011-014-016>018-020-300100-
NORTH ALABAMA

CITY           SKY/WX    TMP DP  RH WIND       PRES   REMARKS
MUSCLE SHOALS  MOCLDY    64  49  57 N5        30.12R
6HR MIN TEMP:  64; 6HR MAX TEMP:  74;

HUNTSVILLE     MOCLDY    65  49  56 N12G17    30.10R
6HR MIN TEMP:  65; 6HR MAX TEMP:  77;

DECATUR        MOCLDY    63  51  65 N7        30.10S
6HR MIN TEMP:  63; 6HR MAX TEMP:  74;

HALEYVILLE     CLOUDY    64  50  60 N9        30.13R
6HR MIN TEMP:  64; 6HR MAX TEMP:  72;

GADSDEN        PTCLDY    67  47  48 N6        30.07R
6HR MIN TEMP:  67; 6HR MAX TEMP:  76;

$$

ALZ012-013-022-023-030>036-040>044-300100-
WEST CENTRAL ALABAMA

CITY           SKY/WX    TMP DP  RH WIND       PRES   REMARKS
TUSCALOOSA     MOCLDY    70  47  43 N5        30.07R
6HR MIN TEMP:  70; 6HR MAX TEMP:  79;

$$

ALZ015-024>027-033>036-040>044-300100-
CENTRAL ALABAMA

CITY           SKY/WX    TMP DP  RH WIND       PRES   REMARKS
BIRMINGHAM     MOCLDY    70  47  43 NW13      30.09R
6HR MIN TEMP:  70; 6HR MAX TEMP:  78;

MONTGOMERY     CLEAR     71  45  39 W6        30.03R
6HR MIN TEMP:  71; 6HR MAX TEMP:  83;

SHELBY CO ARPT PTCLDY    71  45  39 NW6       30.06R
6HR MIN TEMP:  71; 6HR MAX TEMP:  78;

MAXWELL AFB    CLEAR     73  49  42 W6        30.02R
6HR MIN TEMP:  73; 6HR MAX TEMP:  81;

GREENVILLE     FAIR      71  44  37 NW5       30.03R
6HR MIN TEMP:  71; 6HR MAX TEMP:  84;

$$

ALZ019-021-028-029-037-038-045>048-300100-
EAST CENTRAL ALABAMA

CITY           SKY/WX    TMP DP  RH WIND       PRES   REMARKS
ANNISTON       PTCLDY    71  42  35 N8        30.05R
6HR MIN TEMP:  71; 6HR MAX TEMP:  78;

ALEXANDER CITY CLEAR     73  54  51 NW5       30.04R
6HR MIN TEMP:  73; 6HR MAX TEMP:  80;

AUBURN         CLEAR     70  45  40 NW6       30.03R
6HR MIN TEMP:  70; 6HR MAX TEMP:  81;

$$

ALZ051>064-300100-
SOUTHWEST ALABAMA

CITY           SKY/WX    TMP DP  RH WIND       PRES   REMARKS
MOBILE         PTCLDY    74  55  51 N9        30.05R
6HR MIN TEMP:  73; 6HR MAX TEMP:  84;

BROOKLEY FIELD CLEAR     76  56  49 N9        30.04R
6HR MIN TEMP:  76; 6HR MAX TEMP:  86;

EVERGREEN      CLEAR     65  56  72 CALM      30.04R
6HR MIN TEMP:  65; 6HR MAX TEMP:  83;

$$

ALZ049-050-065>069-300100-
SOUTHEAST ALABAMA

CITY           SKY/WX    TMP DP  RH WIND       PRES   REMARKS
DOTHAN         CLEAR     76  57  51 NW10      30.03R
6HR MIN TEMP:  76; 6HR MAX TEMP:  89;

OZARK          CLEAR     74  57  55 NW6       30.00R
6HR MIN TEMP:  74; 6HR MAX TEMP:  87;

TROY           CLEAR     69  51  52 NW7       30.03R
6HR MIN TEMP:  69; 6HR MAX TEMP:  83;

EUFAULA        FAIR      74  51  44 NW3       29.99R
6HR MIN TEMP:  74; 6HR MAX TEMP:  92;

$$




USA.gov is the U.S. government's official web portal to all federal, state and local government web resources and services.